QPF
0.01 0.01 0.00 0.00 0.00 0.00 0.01 0.01 0.02 0.03 0.03 0.02 0.01 0.00 0.00 0.00 0.00 0.00 0.00 0.00 0.00 0.01 0.01 0.02 0.02 0.01 0.01 0.02 0.01 0.01 0.01 0.00 0.01 0.01 0.02 0.02 0.01 0.01 0.01 0.01 0.01 0.01 0.01
0.01 0.01 0.00 0.00 0.00 0.00 0.00 0.00 0.01 0.01 0.01 0.01 0.01 0.01 0.00 0.00 0.00 0.00 0.00 0.00 0.00 0.00 0.01 0.01 0.02 0.02 0.02 0.01 0.01 0.01 0.01 0.01 0.01 0.01 0.03 0.03 0.02 0.02 0.01 0.01 0.01 0.01 0.01
0.00 0.00 0.00 0.00 0.00 0.00 0.00 0.01 0.01 0.01 0.00 0.01 0.01 0.00 0.00 0.00 0.00 0.00 0.00 0.00 0.00 0.00 0.00 0.00 0.01 0.01 0.01 0.02 0.01 0.01 0.02 0.02 0.01 0.01 0.02 0.03 0.03 0.02 0.01 0.01 0.00 0.00 0.00
0.00 0.00 0.01 0.00 0.00 0.00 0.00 0.01 0.01 0.01 0.00 0.00 0.00 0.00 0.00 0.00 0.00 0.00 0.00 0.00 0.00 0.00 0.00 0.00 0.00 0.00 0.01 0.01 0.01 0.01 0.01 0.01 0.02 0.02 0.01 0.01 0.02 0.03 0.02 0.01 0.01 0.00 0.00
0.00 0.00 0.01 0.01 0.00 0.00 0.00 0.00 0.00 0.00 0.00 0.00 0.00 0.00 0.00 0.00 0.00 0.00 0.00 0.00 0.00 0.00 0.00 0.00 0.00 0.00 0.00 0.00 0.00 0.01 0.01 0.01 0.01 0.01 0.01 0.01 0.01 0.02 0.02 0.01 0.01 0.01 0.00
0.00 0.00 0.01 0.01 0.00 0.00 0.00 0.00 0.00 0.00 0.00 0.00 0.00 0.00 0.00 0.00 0.00 0.00 0.00 0.00 0.00 0.00 0.00 0.00 0.00 0.00 0.00 0.00 0.00 0.00 0.00 0.00 0.01 0.01 0.01 0.02 0.01 0.01 0.01 0.01 0.01 0.01 0.00
0.00 0.01 0.01 0.01 0.00 0.00 0.00 0.00 0.01 0.01 0.00 0.00 0.00 0.00 0.00 0.00 0.00 0.00 0.00 0.00 0.00 0.00 0.01 0.01 0.00 0.00 0.00 0.00 0.00 0.00 0.00 0.00 0.00 0.00 0.00 0.00 0.01 0.01 0.01 0.01 0.01 0.01 0.00
0.00 0.01 0.01 0.01 0.01 0.00 0.00 0.01 0.00 0.01 0.01 0.00 0.00 0.00 0.00 0.00 0.00 0.00 0.00 0.00 0.00 0.00 0.00 0.01 0.00 0.00 0.00 0.00 0.00 0.00 0.00 0.00 0.00 0.00 0.00 0.00 0.00 0.00 0.00 0.00 0.00 0.01 0.00
0.00 0.01 0.01 0.01 0.01 0.00 0.01 0.01 0.00 0.00 0.00 0.00 0.00 0.00 0.00 0.00 0.00 0.00 0.00 0.00 0.00 0.00 0.00 0.01 0.01 0.00 0.00 0.01 0.00 0.00 0.00 0.00 0.00 0.00 0.00 0.00 0.00 0.00 0.00 0.00 0.00 0.01 0.00
0.01 0.01 0.01 0.01 0.01 0.01 0.01 0.00 0.00 0.00 0.00 0.00 0.00 0.00 0.00 0.00 0.00 0.00 0.01 0.00 0.00 0.00 0.00 0.00 0.01 0.01 0.01 0.01 0.01 0.00 0.00 0.00 0.00 0.00 0.00 0.00 0.00 0.00 0.00 0.00 0.00 0.00 0.01
0.01 0.01 0.01 0.01 0.01 0.01 0.02 0.02 0.01 0.01 0.02 0.01 0.00 0.00 0.00 0.00 0.00 0.00 0.00 0.01 0.01 0.01 0.00 0.01 0.01 0.01 0.00 0.00 0.01 0.01 0.01 0.01 0.00 0.00 0.00 0.00 0.00 0.00 0.00 0.00 0.00 0.01 0.01
0.02 0.01 0.00 0.01 0.01 0.01 0.01 0.01 0.01 0.01 0.01 0.01 0.01 0.00 0.00 0.00 0.00 0.01 0.00 0.00 0.01 0.01 0.00 0.00 0.00 0.00 0.00 0.00 0.00 0.00 0.00 0.00 0.00 0.00 0.00 0.00 0.00 0.00 0.00 0.00 0.00 0.01 0.01
0.02 0.01 0.01 0.01 0.01 0.01 0.01 0.01 0.01 0.01 0.01 0.00 0.00 0.00 0.00 0.00 0.00 0.00 0.00 0.00 0.01 0.01 0.01 0.01 0.01 0.01 0.01 0.01 0.01 0.01 0.00 0.00 0.00 0.00 0.00 0.00 0.00 0.00 0.00 0.00 0.01 0.01 0.00
0.01 0.01 0.01 0.01 0.01 0.01 0.01 0.01 0.01 0.01 0.01 0.01 0.00 0.01 0.01 0.00 0.00 0.00 0.00 0.01 0.01 0.01 0.01 0.01 0.01 0.01 0.01 0.01 0.01 0.00 0.00 0.00 0.00 0.00 0.00 0.00 0.00 0.00 0.00 0.00 0.00 0.01 0.01
0.00 0.01 0.01 0.01 0.00 0.01 0.01 0.01 0.01 0.01 0.00 0.00 0.01 0.01 0.01 0.01 0.00 0.00 0.01 0.01 0.01 0.01 0.01 0.01 0.00 0.00 0.00 0.00 0.00 0.00 0.00 0.00 0.00 0.00 0.00 0.00 0.00 0.00 0.00 0.00 0.00 0.00 0.00
0.00 0.00 0.01 0.01 0.00 0.00 0.00 0.00 0.00 0.00 0.00 0.00 0.00 0.00 0.00 0.00 0.00 0.00 0.00 0.00 0.00 0.00 0.01 0.00 0.00 0.00 0.00 0.00 0.00 0.00 0.00 0.00 0.00 0.00 0.00 0.00 0.00 0.00 0.00 0.00 0.00 0.00 0.00
0.01 0.01 0.00 0.00 0.00 0.00 0.00 0.00 0.00 0.00 0.00 0.00 0.00 0.00 0.00 0.00 0.00 0.00 0.00 0.00 0.00 0.00 0.00 0.00 0.00 0.00 0.00 0.00 0.00 0.00 0.00 0.00 0.00 0.00 0.00 0.00 0.00 0.00 0.00 0.00 0.00 0.00 0.00
0.02 0.01 0.01 0.00 0.00 0.00 0.00 0.00 0.00 0.00 0.00 0.00 0.00 0.00 0.00 0.00 0.00 0.00 0.00 0.00 0.00 0.00 0.00 0.00 0.00 0.00 0.00 0.00 0.00 0.00 0.00 0.01 0.01 0.01 0.01 0.00 0.00 0.00 0.00 0.01 0.01 0.01 0.01
0.02 0.02 0.02 0.02 0.01 0.00 0.00 0.00 0.01 0.00 0.00 0.00 0.00 0.00 0.00 0.00 0.00 0.00 0.00 0.00 0.00 0.00 0.00 0.00 0.00 0.00 0.00 0.00 0.00 0.01 0.00 0.00 0.01 0.01 0.01 0.01 0.00 0.01 0.01 0.01 0.01 0.01 0.01
0.01 0.02 0.02 0.02 0.02 0.01 0.01 0.00 0.00 0.00 0.00 0.00 0.00 0.00 0.00 0.00 0.00 0.00 0.00 0.00 0.00 0.00 0.00 0.00 0.00 0.00 0.00 0.00 0.00 0.01 0.01 0.01 0.00 0.01 0.01 0.01 0.01 0.01 0.01 0.02 0.02 0.02 0.02
0.01 0.02 0.02 0.02 0.02 0.02 0.01 0.01 0.00 0.00 0.00 0.00 0.00 0.00 0.00 0.00 0.00 0.00 0.00 0.00 0.00 0.00 0.00 0.00 0.00 0.00 0.01 0.01 0.01 0.01 0.01 0.01 0.01 0.01 0.01 0.01 0.01 0.01 0.01 0.02 0.02 0.02 0.02
0.01 0.02 0.02 0.02 0.02 0.01 0.01 0.01 0.01 0.01 0.00 0.00 0.00 0.01 0.01 0.01 0.00 0.00 0.00 0.01 0.01 0.00 0.00 0.00 0.00 0.00 0.01 0.01 0.01 0.01 0.01 0.01 0.01 0.01 0.01 0.01 0.01 0.01 0.01 0.01 0.01 0.02 0.02
0.01 0.01 0.02 0.02 0.01 0.01 0.01 0.01 0.01 0.01 0.00 0.00 0.00 0.01 0.01 0.01 0.00 0.00 0.00 0.00 0.01 0.01 0.01 0.00 0.00 0.00 0.01 0.01 0.01 0.01 0.01 0.01 0.01 0.01 0.02 0.02 0.02 0.02 0.01 0.01 0.01 0.01 0.01
0.00 0.01 0.01 0.01 0.01 0.01 0.01 0.01 0.01 0.01 0.01 0.01 0.01 0.01 0.00 0.00 0.01 0.01 0.00 0.01 0.01 0.01 0.01 0.01 0.01 0.01 0.00 0.01 0.01 0.01 0.01 0.00 0.00 0.01 0.01 0.01 0.01 0.01 0.01 0.01 0.01 0.01 0.01
0.01 0.01 0.01 0.01 0.02 0.02 0.02 0.01 0.01 0.01 0.01 0.01 0.01 0.01 0.01 0.01 0.00 0.00 0.00 0.00 0.00 0.01 0.01 0.01 0.01 0.01 0.01 0.01 0.01 0.01 0.00 0.00 0.00 0.00 0.00 0.00 0.00 0.00 0.01 0.00 0.00 0.00 0.00
0.01 0.02 0.02 0.02 0.02 0.02 0.02 0.02 0.02 0.01 0.01 0.01 0.01 0.00 0.00 0.00 0.00 0.00 0.00 0.00 0.00 0.00 0.00 0.00 0.00 0.00 0.00 0.00 0.00 0.00 0.00 0.00 0.00 0.00 0.00 0.00 0.00 0.00 0.01 0.00 0.00 0.00 0.00
MSLP
1020.44 1020.22 1020.07 1019.95 1019.83 1019.70 1019.56 1019.40 1019.26 1019.16 1019.12 1019.15 1019.24 1019.37 1019.50 1019.60 1019.65 1019.62 1019.53 1019.37 1019.20 1019.04 1018.91 1018.84 1018.84 1018.90 1018.99 1019.09 1019.17 1019.21 1019.19 1019.10 1018.97 1018.81 1018.63 1018.46 1018.29 1018.14 1018.01 1017.90 1017.81 1017.74 1017.70
1020.71 1020.55 1020.44 1020.34 1020.20 1020.02 1019.81 1019.59 1019.40 1019.28 1019.25 1019.31 1019.46 1019.66 1019.87 1020.04 1020.13 1020.12 1020.03 1019.88 1019.70 1019.52 1019.40 1019.33 1019.34 1019.41 1019.50 1019.60 1019.67 1019.69 1019.65 1019.56 1019.43 1019.27 1019.10 1018.93 1018.77 1018.61 1018.45 1018.29 1018.13 1017.98 1017.85
1020.87 1020.79 1020.74 1020.67 1020.54 1020.34 1020.09 1019.82 1019.59 1019.45 1019.41 1019.50 1019.70 1019.95 1020.22 1020.44 1020.57 1020.60 1020.53 1020.38 1020.20 1020.03 1019.90 1019.84 1019.85 1019.91 1020.00 1020.09 1020.15 1020.16 1020.13 1020.05 1019.93 1019.81 1019.68 1019.55 1019.41 1019.26 1019.09 1018.89 1018.67 1018.44 1018.22
1020.93 1020.93 1020.97 1020.96 1020.88 1020.69 1020.43 1020.14 1019.88 1019.71 1019.66 1019.75 1019.96 1020.24 1020.54 1020.80 1020.97 1021.03 1020.98 1020.85 1020.68 1020.52 1020.39 1020.33 1020.33 1020.39 1020.47 1020.55 1020.60 1020.62 1020.59 1020.54 1020.46 1020.39 1020.32 1020.25 1020.16 1020.04 1019.87 1019.65 1019.38 1019.07 1018.76
1020.91 1021.01 1021.15 1021.24 1021.23 1021.09 1020.85 1020.56 1020.28 1020.09 1020.01 1020.08 1020.28 1020.56 1020.87 1021.14 1021.33 1021.41 1021.38 1021.27 1021.12 1020.97 1020.85 1020.79 1020.78 1020.83 1020.89 1020.96 1021.01 1021.02 1021.02 1020.99 1020.97 1020.96 1020.95 1020.95 1020.92 1020.84 1020.69 1020.46 1020.15 1019.78 1019.39
1020.86 1021.07 1021.32 1021.53 1021.62 1021.56 1021.37 1021.10 1020.82 1020.60 1020.49 1020.52 1020.68 1020.93 1021.22 1021.48 1021.67 1021.76 1021.75 1021.66 1021.53 1021.39 1021.28 1021.22 1021.21 1021.23 1021.28 1021.33 1021.36 1021.38 1021.38 1021.39 1021.41 1021.45 1021.51 1021.57 1021.60 1021.56 1021.44 1021.20 1020.87 1020.45 1019.99
1020.86 1021.18 1021.55 1021.88 1022.07 1022.11 1021.98 1021.75 1021.48 1021.24 1021.10 1021.08 1021.19 1021.39 1021.63 1021.86 1022.03 1022.12 1022.12 1022.05 1021.94 1021.81 1021.72 1021.66 1021.64 1021.64 1021.67 1021.69 1021.70 1021.70 1021.70 1021.71 1021.76 1021.84 1021.94 1022.05 1022.12 1022.13 1022.03 1021.81 1021.46 1021.02 1020.51
1020.97 1021.39 1021.87 1022.31 1022.61 1022.73 1022.68 1022.49 1022.24 1022.00 1021.83 1021.77 1021.82 1021.95 1022.14 1022.33 1022.47 1022.55 1022.55 1022.50 1022.40 1022.30 1022.22 1022.16 1022.12 1022.11 1022.10 1022.09 1022.06 1022.03 1022.01 1022.01 1022.06 1022.15 1022.27 1022.40 1022.50 1022.54 1022.46 1022.25 1021.92 1021.47 1020.94
1021.22 1021.73 1022.30 1022.82 1023.20 1023.41 1023.43 1023.30 1023.08 1022.85 1022.66 1022.57 1022.57 1022.65 1022.78 1022.92 1023.04 1023.10 1023.11 1023.06 1022.99 1022.91 1022.83 1022.78 1022.73 1022.69 1022.64 1022.58 1022.51 1022.43 1022.37 1022.34 1022.36 1022.44 1022.55 1022.69 1022.80 1022.85 1022.79 1022.60 1022.29 1021.85 1021.33
1021.63 1022.19 1022.82 1023.39 1023.83 1024.10 1024.18 1024.10 1023.93 1023.73 1023.56 1023.45 1023.43 1023.47 1023.56 1023.67 1023.76 1023.81 1023.82 1023.79 1023.73 1023.67 1023.61 1023.55 1023.49 1023.43 1023.34 1023.23 1023.11 1022.97 1022.86 1022.78 1022.76 1022.80 1022.89 1023.00 1023.11 1023.16 1023.12 1022.95 1022.67 1022.26 1021.77
1022.15 1022.75 1023.38 1023.97 1024.43 1024.74 1024.87 1024.86 1024.75 1024.60 1024.47 1024.39 1024.37 1024.41 1024.48 1024.56 1024.63 1024.68 1024.69 1024.67 1024.63 1024.58 1024.54 1024.48 1024.42 1024.33 1024.21 1024.06 1023.88 1023.70 1023.52 1023.39 1023.32 1023.31 1023.36 1023.45 1023.53 1023.58 1023.54 1023.40 1023.15 1022.78 1022.33
1022.73 1023.32 1023.93 1024.50 1024.95 1025.27 1025.45 1025.50 1025.47 1025.41 1025.35 1025.32 1025.34 1025.39 1025.47 1025.55 1025.61 1025.65 1025.66 1025.65 1025.63 1025.60 1025.56 1025.52 1025.45 1025.35 1025.21 1025.03 1024.81 1024.58 1024.36 1024.17 1024.05 1024.00 1024.01 1024.06 1024.12 1024.16 1024.13 1024.00 1023.77 1023.44 1023.04
1023.28 1023.84 1024.40 1024.92 1025.35 1025.68 1025.89 1026.01 1026.07 1026.11 1026.15 1026.20 1026.28 1026.38 1026.48 1026.56 1026.62 1026.66 1026.67 1026.66 1026.65 1026.63 1026.61 1026.57 1026.51 1026.41 1026.26 1026.06 1025.82 1025.56 1025.31 1025.09 1024.93 1024.84 1024.81 1024.83 1024.86 1024.88 1024.84 1024.72 1024.51 1024.20 1023.83
1023.75 1024.26 1024.75 1025.22 1025.61 1025.94 1026.19 1026.38 1026.54 1026.69 1026.84 1026.99 1027.15 1027.29 1027.42 1027.52 1027.58 1027.60 1027.61 1027.60 1027.59 1027.58 1027.57 1027.55 1027.51 1027.41 1027.27 1027.07 1026.83 1026.56 1026.29 1026.05 1025.87 1025.74 1025.68 1025.67 1025.67 1025.66 1025.60 1025.47 1025.25 1024.96 1024.59
1024.10 1024.55 1024.99 1025.39 1025.75 1026.08 1026.37 1026.64 1026.90 1027.16 1027.42 1027.67 1027.90 1028.10 1028.25 1028.36 1028.41 1028.42 1028.41 1028.40 1028.39 1028.39 1028.39 1028.38 1028.35 1028.28 1028.16 1027.97 1027.74 1027.47 1027.20 1026.95 1026.75 1026.60 1026.51 1026.46 1026.43 1026.38 1026.28 1026.12 1025.89 1025.58 1025.21
1024.32 1024.73 1025.12 1025.48 1025.82 1026.15 1026.48 1026.82 1027.18 1027.54 1027.90 1028.24 1028.54 1028.77 1028.94 1029.04 1029.08 1029.08 1029.05 1029.02 1029.00 1029.00 1029.02 1029.03 1029.02 1028.98 1028.87 1028.71 1028.49 1028.23 1027.97 1027.71 1027.50 1027.32 1027.20 1027.11 1027.03 1026.93 1026.78 1026.58 1026.30 1025.96 1025.56
1024.45 1024.84 1025.19 1025.53 1025.86 1026.21 1026.59 1027.00 1027.43 1027.88 1028.32 1028.72 1029.06 1029.32 1029.50 1029.58 1029.60 1029.57 1029.52 1029.48 1029.45 1029.46 1029.49 1029.52 1029.53 1029.50 1029.42 1029.28 1029.07 1028.82 1028.56 1028.29 1028.05 1027.85 1027.68 1027.54 1027.40 1027.25 1027.04 1026.78 1026.45 1026.06 1025.63
1024.52 1024.91 1025.26 1025.60 1025.94 1026.32 1026.73 1027.20 1027.69 1028.20 1028.69 1029.13 1029.49 1029.76 1029.93 1030.00 1029.99 1029.94 1029.88 1029.82 1029.80 1029.81 1029.85 1029.90 1029.93 1029.93 1029.86 1029.72 1029.52 1029.27 1028.99 1028.70 1028.43 1028.18 1027.96 1027.76 1027.56 1027.34 1027.07 1026.75 1026.36 1025.93 1025.45
1024.58 1025.00 1025.37 1025.72 1026.09 1026.50 1026.95 1027.45 1027.99 1028.53 1029.04 1029.49 1029.86 1030.12 1030.27 1030.33 1030.31 1030.25 1030.18 1030.13 1030.12 1030.14 1030.20 1030.27 1030.31 1030.31 1030.25 1030.11 1029.90 1029.63 1029.32 1029.00 1028.68 1028.38 1028.10 1027.84 1027.58 1027.29 1026.96 1026.58 1026.15 1025.67 1025.16
1024.66 1025.12 1025.53 1025.92 1026.32 1026.75 1027.23 1027.75 1028.30 1028.85 1029.37 1029.81 1030.17 1030.42 1030.56 1030.61 1030.59 1030.54 1030.48 1030.45 1030.46 1030.51 1030.59 1030.67 1030.73 1030.73 1030.66 1030.51 1030.27 1029.97 1029.62 1029.25 1028.88 1028.53 1028.19 1027.87 1027.54 1027.20 1026.83 1026.40 1025.93 1025.43 1024.90
1024.77 1025.28 1025.73 1026.16 1026.59 1027.04 1027.53 1028.06 1028.61 1029.15 1029.65 1030.08 1030.42 1030.66 1030.80 1030.86 1030.86 1030.83 1030.81 1030.82 1030.86 1030.94 1031.04 1031.14 1031.20 1031.20 1031.11 1030.93 1030.67 1030.33 1029.94 1029.52 1029.10 1028.69 1028.31 1027.93 1027.56 1027.18 1026.77 1026.33 1025.84 1025.33 1024.79
1024.88 1025.44 1025.94 1026.41 1026.86 1027.33 1027.82 1028.33 1028.86 1029.38 1029.86 1030.27 1030.60 1030.84 1030.99 1031.07 1031.10 1031.12 1031.15 1031.21 1031.29 1031.41 1031.53 1031.64 1031.70 1031.68 1031.57 1031.37 1031.07 1030.70 1030.27 1029.81 1029.35 1028.91 1028.48 1028.08 1027.68 1027.28 1026.86 1026.41 1025.93 1025.42 1024.89
1024.98 1025.59 1026.12 1026.61 1027.08 1027.55 1028.03 1028.53 1029.03 1029.52 1029.97 1030.36 1030.69 1030.93 1031.11 1031.23 1031.31 1031.39 1031.47 1031.58 1031.71 1031.85 1031.99 1032.10 1032.15 1032.12 1031.99 1031.76 1031.43 1031.03 1030.58 1030.10 1029.62 1029.16 1028.72 1028.30 1027.90 1027.50 1027.09 1026.65 1026.18 1025.68 1025.17
1025.03 1025.67 1026.23 1026.74 1027.21 1027.68 1028.15 1028.62 1029.09 1029.55 1029.98 1030.36 1030.69 1030.95 1031.16 1031.32 1031.46 1031.59 1031.73 1031.88 1032.04 1032.20 1032.34 1032.44 1032.48 1032.42 1032.27 1032.02 1031.68 1031.27 1030.81 1030.33 1029.85 1029.40 1028.97 1028.56 1028.17 1027.78 1027.38 1026.96 1026.51 1026.03 1025.52
1025.01 1025.67 1026.24 1026.76 1027.24 1027.70 1028.16 1028.61 1029.06 1029.50 1029.91 1030.29 1030.62 1030.91 1031.15 1031.36 1031.54 1031.72 1031.89 1032.07 1032.24 1032.40 1032.53 1032.61 1032.62 1032.54 1032.37 1032.11 1031.77 1031.36 1030.92 1030.46 1030.01 1029.58 1029.17 1028.79 1028.42 1028.05 1027.67 1027.26 1026.82 1026.34 1025.83
1024.92 1025.58 1026.16 1026.69 1027.17 1027.63 1028.08 1028.52 1028.95 1029.38 1029.78 1030.16 1030.51 1030.82 1031.09 1031.34 1031.55 1031.76 1031.95 1032.13 1032.30 1032.44 1032.54 1032.59 1032.56 1032.46 1032.27 1032.01 1031.68 1031.30 1030.89 1030.47 1030.06 1029.67 1029.30 1028.95 1028.60 1028.25 1027.87 1027.46 1027.01 1026.51 1025.98
Thickness
5754 5756 5755 5754 5752 5751 5749 5747 5745 5744 5742 5738 5736 5733 5732 5734 5734 5734 5733 5733 5733 5732 5731 5730 5728 5727 5724 5721 5721 5718 5716 5715 5716 5712 5710 5712 5713 5711 5710 5709 5707 5706 5706
5751 5751 5752 5751 5749 5747 5747 5746 5744 5743 5740 5737 5736 5734 5732 5732 5732 5731 5731 5730 5730 5729 5729 5727 5725 5724 5721 5719 5718 5716 5712 5712 5713 5708 5702 5699 5700 5704 5708 5706 5704 5703 5703
5749 5749 5749 5748 5747 5745 5745 5745 5743 5741 5739 5737 5735 5733 5730 5729 5727 5726 5726 5727 5727 5726 5726 5725 5723 5722 5720 5716 5715 5713 5710 5706 5709 5709 5703 5694 5689 5694 5699 5702 5701 5700 5699
5752 5749 5747 5746 5745 5745 5746 5745 5742 5740 5738 5735 5731 5728 5723 5721 5723 5724 5724 5725 5724 5724 5723 5723 5721 5720 5718 5715 5713 5712 5710 5706 5703 5705 5705 5703 5698 5690 5687 5693 5697 5697 5696
5751 5749 5748 5747 5746 5745 5744 5743 5741 5739 5737 5734 5730 5727 5724 5724 5724 5724 5722 5722 5722 5722 5721 5720 5719 5717 5716 5714 5712 5710 5708 5706 5702 5701 5700 5700 5698 5696 5688 5683 5687 5690 5692
5750 5749 5748 5746 5745 5744 5742 5740 5737 5735 5734 5732 5729 5726 5723 5722 5721 5720 5719 5719 5719 5719 5718 5717 5716 5715 5713 5712 5710 5708 5706 5704 5702 5700 5698 5695 5692 5690 5687 5683 5682 5683 5686
5748 5746 5743 5742 5741 5740 5738 5737 5734 5732 5732 5730 5728 5726 5724 5722 5720 5719 5718 5716 5715 5715 5715 5715 5713 5712 5711 5710 5708 5706 5703 5702 5700 5698 5696 5695 5693 5692 5688 5683 5680 5679 5681
5747 5744 5742 5740 5739 5737 5736 5734 5732 5730 5729 5728 5727 5726 5725 5722 5721 5720 5718 5717 5715 5715 5715 5713 5711 5710 5709 5707 5705 5703 5701 5700 5698 5696 5694 5692 5691 5690 5687 5682 5677 5672 5673
5744 5743 5741 5740 5737 5736 5734 5733 5731 5729 5728 5727 5726 5725 5724 5721 5720 5720 5719 5717 5716 5715 5713 5711 5709 5707 5706 5704 5702 5699 5698 5696 5695 5693 5691 5689 5688 5687 5685 5683 5679 5671 5664
5743 5741 5739 5738 5736 5735 5734 5733 5731 5729 5727 5727 5725 5724 5722 5721 5719 5718 5716 5715 5714 5713 5711 5708 5706 5704 5703 5701 5698 5696 5695 5693 5691 5689 5687 5685 5684 5683 5681 5679 5677 5673 5667
5740 5738 5736 5736 5735 5733 5731 5730 5728 5727 5726 5725 5724 5722 5720 5719 5718 5715 5714 5713 5711 5710 5708 5705 5703 5701 5699 5697 5695 5693 5691 5688 5686 5685 5683 5680 5680 5678 5676 5675 5672 5670 5666
5740 5737 5735 5734 5731 5729 5728 5727 5726 5725 5724 5723 5722 5720 5718 5717 5714 5712 5711 5710 5708 5707 5705 5703 5700 5698 5696 5694 5691 5689 5687 5684 5682 5680 5678 5676 5675 5673 5671 5669 5667 5665 5663
5737 5735 5732 5730 5728 5727 5725 5725 5724 5723 5723 5721 5719 5717 5715 5713 5710 5709 5708 5707 5705 5703 5702 5700 5696 5694 5692 5690 5688 5686 5683 5681 5679 5676 5674 5672 5670 5667 5666 5664 5662 5660 5659
5733 5730 5728 5726 5725 5725 5724 5723 5722 5722 5720 5718 5715 5712 5711 5709 5708 5706 5705 5703 5702 5699 5697 5695 5692 5690 5688 5685 5683 5681 5679 5677 5674 5672 5670 5668 5665 5662 5661 5659 5656 5655 5652
5729 5727 5724 5723 5723 5722 5721 5721 5719 5718 5717 5713 5710 5708 5708 5707 5704 5702 5700 5698 5697 5695 5693 5690 5687 5685 5683 5680 5678 5676 5674 5672 5669 5667 5665 5663 5661 5659 5657 5654 5650 5648 5645
5725 5724 5723 5722 5721 5720 5719 5718 5716 5715 5713 5709 5706 5705 5703 5701 5699 5697 5695 5693 5690 5689 5687 5684 5681 5679 5677 5675 5674 5671 5669 5667 5665 5662 5660 5658 5656 5653 5651 5648 5646 5643 5639
5723 5721 5721 5720 5719 5719 5718 5715 5714 5713 5709 5705 5702 5699 5697 5695 5693 5692 5689 5686 5684 5683 5680 5678 5675 5672 5670 5670 5668 5666 5664 5661 5659 5657 5655 5653 5651 5647 5644 5641 5639 5636 5634
5721 5720 5720 5719 5719 5719 5717 5715 5712 5709 5705 5701 5698 5695 5693 5690 5688 5685 5683 5681 5679 5677 5674 5672 5670 5667 5665 5664 5662 5660 5657 5655 5653 5651 5649 5646 5643 5641 5638 5635 5631 5628 5627
5720 5719 5719 5719 5717 5716 5715 5711 5707 5704 5700 5696 5694 5691 5689 5685 5682 5679 5677 5676 5673 5671 5669 5667 5665 5662 5659 5658 5656 5654 5651 5648 5646 5645 5643 5640 5637 5635 5632 5628 5624 5621 5619
5718 5717 5716 5716 5713 5713 5711 5707 5702 5698 5695 5693 5691 5689 5686 5682 5678 5675 5673 5671 5669 5666 5664 5662 5660 5657 5654 5653 5651 5648 5645 5641 5639 5638 5636 5633 5631 5628 5624 5620 5616 5613 5611
5713 5713 5711 5709 5708 5709 5707 5701 5698 5694 5693 5691 5688 5685 5682 5679 5675 5672 5669 5666 5664 5661 5658 5656 5654 5652 5649 5647 5644 5642 5638 5635 5632 5630 5627 5625 5623 5620 5616 5613 5609 5606 5604
5707 5707 5704 5703 5703 5704 5701 5695 5692 5692 5690 5687 5683 5680 5677 5675 5672 5667 5664 5661 5658 5654 5651 5649 5646 5645 5643 5640 5637 5634 5631 5628 5624 5621 5619 5616 5614 5611 5608 5604 5602 5599 5596
5701 5700 5698 5696 5696 5697 5694 5689 5688 5687 5684 5680 5677 5675 5672 5669 5666 5662 5658 5654 5651 5648 5645 5642 5639 5636 5635 5632 5629 5626 5623 5620 5617 5614 5611 5608 5605 5601 5598 5595 5592 5589 5585
5694 5693 5691 5688 5688 5689 5688 5685 5684 5682 5678 5674 5670 5669 5666 5662 5659 5655 5652 5648 5644 5641 5638 5635 5632 5630 5627 5624 5621 5617 5613 5610 5607 5603 5601 5598 5595 5591 5588 5585 5582 5578 5575
5688 5686 5684 5681 5680 5681 5680 5679 5677 5675 5671 5667 5664 5661 5658 5654 5650 5646 5643 5641 5638 5636 5633 5630 5626 5622 5618 5616 5614 5610 5606 5602 5598 5594 5590 5587 5583 5579 5577 5574 5571 5568 5564
5680 5678 5676 5674 5674 5673 5672 5671 5670 5667 5663 5660 5657 5653 5650 5646 5642 5637 5633 5631 5630 5628 5626 5624 5620 5616 5613 5609 5606 5602 5598 5594 5590 5585 5580 5576 5573 5569 5566 5563 5560 5557 5553